Date String (YYYY-MM-DD hh:mm:ss) UTC,Instrument flags,absolute air pressure of the measurement (hPa),sample flow rate (lpm),inlet stack bypass flow (lpm),air temperature of the measurement (°C),ambient temperature measured by the external sensor (°C),aerosol sample conditioner tube jacket temperature (°C),OPC LED temperature (°C),internal box temperature (°C),relative humidity of the measurement (%),span deviation,mass concentration of particles derived from Lorenz-Mie calculation of OPC scattering (μg/m³),mass concentration of particles derived from Lorenz-Mie calculation of OPC scattering (μg/m³),mass concentration of particles derived from Lorenz-Mie calculation of OPC scattering (μg/m³)
DateTimeUTC,F1_M11,P_M11,Q1_M11,Q2_M11,T1_M11,T2_M11,T3_M11,T4_M11,T5_M11,U1_M11,ZSPAN_M11,X0_M11,X2_M11,X1_M11
2024-01-09 02:00:00,SystemResetWarning,0824.9,5.01,000.00,019.2,018.2,000.0,027.7,020.3,8.0,0000.0,0007.97,0001.79,0001.16
2024-01-09 02:01:00,SystemResetWarning,0824.9,5.01,000.00,019.2,018.2,000.0,027.6,020.2,8.0,0000.0,0007.22,0001.73,0001.14
2024-01-09 02:02:00,SystemResetWarning,0824.8,4.99,000.00,019.2,018.2,000.0,027.6,020.2,8.1,0000.0,0007.04,0001.72,0001.12
2024-01-09 02:03:00,SystemResetWarning,0824.9,4.99,000.00,019.2,018.2,000.0,027.6,020.2,8.1,0000.0,0006.98,0001.69,0001.09
2024-01-09 02:04:00,SystemResetWarning,0824.8,5.00,000.00,019.2,018.2,000.0,027.6,020.1,8.1,0000.0,0006.03,0001.66,0001.06
2024-01-09 02:05:00,SystemResetWarning,0824.9,5.00,000.00,019.2,018.2,000.0,027.6,020.1,8.1,0000.0,0004.50,0001.69,0001.05
2024-01-09 02:06:00,SystemResetWarning,0824.9,5.00,000.00,019.2,018.1,000.0,027.6,020.2,8.1,0000.0,0004.28,0001.70,0001.05
2024-01-09 02:07:00,SystemResetWarning,0824.9,5.00,000.00,019.1,018.1,000.0,027.6,020.2,8.1,0000.0,0004.41,0001.68,0001.04
2024-01-09 02:08:00,SystemResetWarning,0824.9,5.00,000.00,019.1,018.2,000.0,027.6,020.2,8.1,0000.0,0004.45,0001.68,0001.06
2024-01-09 02:09:00,SystemResetWarning,0824.9,5.00,000.00,019.1,018.1,000.0,027.6,020.2,8.1,0000.0,0004.55,0001.69,0001.08
2024-01-09 02:10:00,SystemResetWarning,0824.9,5.00,000.00,019.1,018.1,000.0,027.5,020.1,8.1,0000.0,0003.93,0001.73,0001.09
2024-01-09 02:11:00,SystemResetWarning,0824.9,5.00,000.00,019.1,018.1,000.0,027.5,020.1,8.1,0000.0,0003.64,0001.76,0001.09
2024-01-09 02:12:00,SystemResetWarning,0824.9,5.00,000.00,019.1,018.0,000.0,027.5,020.0,8.1,0000.0,0003.74,0001.80,0001.09
2024-01-09 02:13:00,SystemResetWarning,0824.9,5.00,000.00,019.1,018.0,000.0,027.5,020.0,8.1,0000.0,0003.80,0001.82,0001.10
2024-01-09 02:14:00,SystemResetWarning,0824.9,5.00,000.00,019.1,018.0,000.0,027.5,020.0,8.1,0000.0,0004.10,0001.92,0001.14
2024-01-09 02:15:00,SystemResetWarning,0824.9,5.00,000.00,019.0,018.0,000.0,027.5,020.0,8.1,0000.0,0004.29,0001.97,0001.15
2024-01-09 02:16:00,SystemResetWarning,0824.9,5.00,000.00,019.0,018.0,000.0,027.5,020.0,8.1,0000.0,0004.22,0001.95,0001.17
2024-01-09 02:17:00,SystemResetWarning,0824.9,5.00,000.00,019.0,018.0,000.0,027.5,020.0,8.0,0000.0,0004.60,0001.97,0001.18
2024-01-09 02:18:00,SystemResetWarning,0824.9,5.00,000.00,019.0,018.0,000.0,027.4,020.0,8.0,0000.0,0004.49,0001.98,0001.19
2024-01-09 02:19:00,SystemResetWarning,0824.9,5.00,000.00,019.0,017.9,000.0,027.4,020.0,8.0,0000.0,0004.68,0002.00,0001.19
2024-01-09 02:20:00,SystemResetWarning,0824.9,4.99,000.00,019.0,017.9,000.0,027.4,020.0,7.9,0000.0,0004.58,0002.01,0001.19
2024-01-09 02:21:00,SystemResetWarning,0824.9,4.99,000.00,019.0,018.0,000.0,027.4,020.0,7.9,0000.0,0005.03,0002.02,0001.21
2024-01-09 02:22:00,SystemResetWarning,0824.9,5.00,000.00,019.0,017.9,000.0,027.4,020.0,7.9,0000.0,0004.94,0002.00,0001.22
2024-01-09 02:23:00,SystemResetWarning,0824.9,5.01,000.00,018.9,017.9,000.0,027.4,020.0,7.9,0000.0,0004.86,0002.00,0001.25
2024-01-09 02:24:00,SystemResetWarning,0824.9,5.00,000.00,018.9,017.9,000.0,027.4,020.0,7.9,0000.0,0004.79,0002.05,0001.27
2024-01-09 02:25:00,SystemResetWarning,0824.9,5.00,000.00,018.9,017.9,000.0,027.4,020.0,7.8,0000.0,0005.18,0002.02,0001.27
2024-01-09 02:26:00,SystemResetWarning,0824.9,5.00,000.00,018.9,017.9,000.0,027.4,020.0,7.8,0000.0,0005.52,0002.03,0001.28
2024-01-09 02:27:00,SystemResetWarning,0824.9,5.00,000.00,018.9,017.8,000.0,027.4,020.0,7.8,0000.0,0006.52,0002.02,0001.29
2024-01-09 02:28:00,SystemResetWarning,0824.9,5.00,000.00,018.9,017.8,000.0,027.4,020.0,7.7,0000.0,0006.23,0001.97,0001.27
2024-01-09 02:29:00,SystemResetWarning,0824.9,5.00,000.00,018.9,017.8,000.0,027.4,020.0,7.7,0000.0,0006.17,0001.98,0001.28
2024-01-09 02:30:00,SystemResetWarning,0824.9,5.00,000.00,018.9,017.8,000.0,027.4,020.0,7.7,0000.0,0006.12,0002.04,0001.28
2024-01-09 02:31:00,SystemResetWarning,0824.9,5.00,000.00,018.9,017.8,000.0,027.4,020.0,7.7,0000.0,0006.34,0002.09,0001.27
2024-01-09 02:32:00,SystemResetWarning,0824.9,5.00,000.00,018.9,017.8,000.0,027.4,020.0,7.7,0000.0,0005.98,0002.09,0001.27
2024-01-09 02:33:00,SystemResetWarning,0824.9,4.99,000.00,018.9,017.7,000.0,027.4,020.0,7.7,0000.0,0005.97,0002.11,0001.26
2024-01-09 02:34:00,SystemResetWarning,0824.9,5.00,000.00,018.9,017.7,000.0,027.4,020.0,7.6,0000.0,0006.84,0002.12,0001.26
2024-01-09 02:35:00,SystemResetWarning,0824.8,5.00,000.00,018.9,017.7,000.0,027.4,020.0,7.6,0000.0,0006.82,0002.07,0001.25
2024-01-09 02:36:00,SystemResetWarning,0824.8,5.00,000.00,018.9,017.7,000.0,027.4,020.0,7.5,0000.0,0006.36,0002.02,0001.24
2024-01-09 02:37:00,SystemResetWarning,0824.8,5.00,000.00,018.9,017.8,000.0,027.4,020.0,7.5,0000.0,0005.66,0001.95,0001.24
2024-01-09 02:38:00,SystemResetWarning,0824.8,5.01,000.00,018.9,017.8,000.0,027.4,020.0,7.5,0000.0,0004.89,0001.93,0001.22
2024-01-09 02:39:00,SystemResetWarning,0824.8,5.00,000.00,018.9,017.8,000.0,027.4,020.0,7.4,0000.0,0004.48,0001.93,0001.22
2024-01-09 02:40:00,SystemResetWarning,0824.7,5.00,000.00,018.9,017.7,000.0,027.4,020.0,7.4,0000.0,0004.61,0001.96,0001.21
2024-01-09 02:41:00,SystemResetWarning,0824.8,5.00,000.00,018.9,017.7,000.0,027.4,020.0,7.4,0000.0,0004.37,0001.87,0001.20
2024-01-09 02:42:00,SystemResetWarning,0824.7,5.00,000.00,018.9,017.7,000.0,027.3,020.0,7.3,0000.0,0004.09,0001.81,0001.21
2024-01-09 02:43:00,SystemResetWarning,0824.8,5.00,000.00,018.9,017.7,000.0,027.3,020.0,7.3,0000.0,0004.13,0001.79,0001.20
2024-01-09 02:44:00,SystemResetWarning,0824.7,5.00,000.00,018.9,017.7,000.0,027.3,020.0,7.2,0000.0,0003.99,0001.73,0001.18
2024-01-09 02:45:00,SystemResetWarning,0824.7,4.99,000.00,018.9,017.7,000.0,027.3,020.0,7.2,0000.0,0003.17,0001.65,0001.16
2024-01-09 02:46:00,SystemResetWarning,0824.7,4.99,000.00,018.8,017.7,000.0,027.3,020.0,7.1,0000.0,0002.97,0001.62,0001.15
2024-01-09 02:47:00,SystemResetWarning,0824.7,4.99,000.00,018.8,017.7,000.0,027.3,020.0,7.0,0000.0,0003.49,0001.62,0001.14
2024-01-09 02:48:00,SystemResetWarning,0824.7,5.00,000.00,018.8,017.8,000.0,027.3,020.0,7.0,0000.0,0003.54,0001.59,0001.13
2024-01-09 02:49:00,SystemResetWarning,0824.7,5.00,000.00,018.8,017.8,000.0,027.3,020.0,6.9,0000.0,0003.45,0001.56,0001.11
2024-01-09 02:50:00,SystemResetWarning,0824.8,5.00,000.00,018.8,017.8,000.0,027.2,020.0,6.9,0000.0,0003.50,0001.57,0001.10
2024-01-09 02:51:00,SystemResetWarning,0824.7,5.00,000.00,018.8,017.8,000.0,027.2,020.0,6.8,0000.0,0003.40,0001.53,0001.09
2024-01-09 02:52:00,SystemResetWarning,0824.7,5.00,000.00,018.8,017.8,000.0,027.2,020.0,6.7,0000.0,0003.41,0001.52,0001.09
2024-01-09 02:53:00,SystemResetWarning,0824.7,5.00,000.00,018.8,017.8,000.0,027.2,020.0,6.6,0000.0,0003.40,0001.49,0001.08
2024-01-09 02:54:00,SystemResetWarning,0824.7,5.00,000.00,018.8,017.8,000.0,027.2,020.0,6.6,0000.0,0003.24,0001.42,0001.06
2024-01-09 02:55:00,SystemResetWarning,0824.8,5.01,000.00,018.8,017.8,000.0,027.2,020.0,6.7,0000.0,0003.18,0001.40,0001.05
2024-01-09 02:56:00,SystemResetWarning,0824.8,5.00,000.00,018.8,017.7,000.0,027.2,020.0,6.6,0000.0,0003.03,0001.40,0001.04
2024-01-09 02:57:00,SystemResetWarning,0824.8,5.01,000.00,018.8,017.7,000.0,027.2,020.0,6.5,0000.0,0003.04,0001.40,0001.01
2024-01-09 02:58:00,SystemResetWarning,0824.8,5.01,000.00,018.8,017.7,000.0,027.2,020.0,6.4,0000.0,0002.57,0001.37,0000.99
2024-01-09 02:59:00,SystemResetWarning,0824.8,5.00,000.00,018.8,017.7,000.0,027.2,020.0,6.4,0000.0,0002.26,0001.34,0000.97
